{"data":{"norad_id":56701,"epoch":"2026-09-20T05:44:13.066368Z","epoch_age_seconds":137406,"freshness":"FRESH","line1":"1 56701U 23067P   26263.23904012  .00002021  00000+0  82962-4 0  9992","line2":"2 56701  43.0037 252.3755 0001689 288.0091  72.0577 15.27574741185453","mean_motion":15.27574741,"eccentricity":0.0001689,"inclination_deg":43.0037,"raan_deg":252.3755,"arg_perigee_deg":288.0091,"mean_anomaly_deg":72.0577,"bstar":8.2962e-5,"rev_number":18545,"period_min":94.267073246925,"perigee_km":481.90598643139,"apogee_km":484.2237004141,"semimajor_km":6861.2018434227,"source":"CELESTRAK","updated_at":"2026-09-21T09:00:33.483255Z"}}